Time,TemperatureF,DewpointF,PressureIn,WindDirection,WindDirectionDegrees,WindSpeedMPH,WindSpeedGustMPH,Humidity,HourlyPrecipIn,Conditions,Clouds,dailyrainin,SoftwareType,DateUTC
2013-09-04 00:11:00,88.0,57.0,-100.00,North,-999,-999.0,-999.0,35,-99.99,,,-99.99,,2013-09-04 00:11:00,
2013-09-04 00:22:00,87.0,56.0,-100.00,North,-999,-999.0,-999.0,35,-99.99,,,-99.99,,2013-09-04 00:22:00,
2013-09-04 00:32:00,87.0,56.0,-100.00,North,-999,-999.0,-999.0,35,-99.99,,,-99.99,,2013-09-04 00:32:00,
2013-09-04 00:42:00,87.0,56.0,-100.00,North,-999,-999.0,-999.0,35,-99.99,,,-99.99,,2013-09-04 00:42:00,
2013-09-04 01:01:00,85.0,56.0,-100.00,North,-999,-999.0,-999.0,37,-99.99,,,-99.99,,2013-09-04 01:01:00,
2013-09-04 01:11:00,87.0,56.0,-100.00,North,-999,-999.0,-999.0,35,-99.99,,,-99.99,,2013-09-04 01:11:00,
2013-09-04 01:21:00,85.0,56.0,-100.00,North,-999,-999.0,-999.0,37,-99.99,,,-99.99,,2013-09-04 01:21:00,
2013-09-04 01:32:00,85.0,56.0,-100.00,North,-999,-999.0,-999.0,37,-99.99,,,-99.99,,2013-09-04 01:32:00,
2013-09-04 01:42:00,85.0,56.0,-100.00,North,-999,-999.0,-999.0,37,-99.99,,,-99.99,,2013-09-04 01:42:00,
2013-09-04 01:52:00,85.0,56.0,-100.00,North,-999,-999.0,-999.0,37,-99.99,,,-99.99,,2013-09-04 01:52:00,
2013-09-04 02:43:00,80.0,55.0,-100.00,North,-999,-999.0,-999.0,43,-99.99,,,-99.99,,2013-09-04 02:43:00,
2013-09-04 03:11:00,78.0,56.0,-100.00,North,-999,-999.0,-999.0,46,-99.99,,,-99.99,,2013-09-04 03:11:00,
2013-09-04 03:22:00,74.0,54.0,-100.00,North,-999,-999.0,-999.0,50,-99.99,,,-99.99,,2013-09-04 03:22:00,
2013-09-04 03:34:00,74.0,54.0,-100.00,North,-999,-999.0,-999.0,50,-99.99,,,-99.99,,2013-09-04 03:34:00,
2013-09-04 03:44:00,74.0,54.0,-100.00,North,-999,-999.0,-999.0,50,-99.99,,,-99.99,,2013-09-04 03:44:00,
2013-09-04 03:54:00,71.0,52.0,-100.00,North,-999,-999.0,-999.0,52,-99.99,,,-99.99,,2013-09-04 03:54:00,
2013-09-04 04:04:00,71.0,52.0,-100.00,North,-999,-999.0,-999.0,52,-99.99,,,-99.99,,2013-09-04 04:04:00,
2013-09-04 04:14:00,71.0,52.0,-100.00,North,-999,-999.0,-999.0,52,-99.99,,,-99.99,,2013-09-04 04:14:00,
2013-09-04 04:44:00,69.0,52.0,-100.00,North,-999,-999.0,-999.0,55,-99.99,,,-99.99,,2013-09-04 04:44:00,
2013-09-04 04:54:00,67.0,52.0,-100.00,North,-999,-999.0,-999.0,59,-99.99,,,-99.99,,2013-09-04 04:54:00,
2013-09-04 05:03:00,67.0,52.0,-100.00,North,-999,-999.0,-999.0,59,-99.99,,,-99.99,,2013-09-04 05:03:00,
2013-09-04 05:12:00,67.0,52.0,-100.00,North,-999,-999.0,-999.0,59,-99.99,,,-99.99,,2013-09-04 05:12:00,
2013-09-04 05:43:00,66.0,52.0,-100.00,North,-999,-999.0,-999.0,61,-99.99,,,-99.99,,2013-09-04 05:43:00,
2013-09-04 05:53:00,63.0,50.0,-100.00,North,-999,-999.0,-999.0,63,-99.99,,,-99.99,,2013-09-04 05:53:00,
2013-09-04 06:02:00,63.0,50.0,-100.00,North,-999,-999.0,-999.0,63,-99.99,,,-99.99,,2013-09-04 06:02:00,
2013-09-04 06:12:00,63.0,50.0,-100.00,North,-999,-999.0,-999.0,63,-99.99,,,-99.99,,2013-09-04 06:12:00,
2013-09-04 06:22:00,63.0,50.0,-100.00,North,-999,-999.0,-999.0,63,-99.99,,,-99.99,,2013-09-04 06:22:00,
2013-09-04 06:32:00,63.0,50.0,-100.00,North,-999,-999.0,-999.0,63,-99.99,,,-99.99,,2013-09-04 06:32:00,
2013-09-04 06:42:00,63.0,50.0,-100.00,North,-999,-999.0,-999.0,63,-99.99,,,-99.99,,2013-09-04 06:42:00,
2013-09-04 07:42:00,61.0,50.0,-100.00,North,-999,-999.0,-999.0,66,-99.99,,,-99.99,,2013-09-04 07:42:00,
2013-09-04 08:12:00,60.0,50.0,-100.00,North,-999,-999.0,-999.0,70,-99.99,,,-99.99,,2013-09-04 08:12:00,
2013-09-04 08:43:00,59.0,51.0,-100.00,North,-999,-999.0,-999.0,74,-99.99,,,0.00,,2013-09-04 08:43:00,
2013-09-04 08:52:00,59.0,51.0,-100.00,North,-999,-999.0,-999.0,74,-99.99,,,-99.99,,2013-09-04 08:52:00,
2013-09-04 09:01:00,59.0,51.0,-100.00,North,-999,-999.0,-999.0,74,-99.99,,,-99.99,,2013-09-04 09:01:00,
2013-09-04 09:11:00,59.0,51.0,-100.00,North,-999,-999.0,-999.0,74,-99.99,,,-99.99,,2013-09-04 09:11:00,
2013-09-04 10:12:00,57.0,48.0,-100.00,North,-999,-999.0,-999.0,72,-99.99,,,-99.99,,2013-09-04 10:12:00,
2013-09-04 10:42:00,55.0,49.0,-100.00,North,-999,-999.0,-999.0,79,-99.99,,,-99.99,,2013-09-04 10:42:00,
2013-09-04 11:12:00,55.0,49.0,-100.00,North,-999,-999.0,-999.0,79,-99.99,,,-99.99,,2013-09-04 11:12:00,
2013-09-04 11:42:00,55.0,48.0,-100.00,North,-999,-999.0,-999.0,78,-99.99,,,-99.99,,2013-09-04 11:42:00,
2013-09-04 11:52:00,54.0,48.0,-100.00,North,-999,-999.0,-999.0,79,-99.99,,,-99.99,,2013-09-04 11:52:00,
2013-09-04 12:01:00,54.0,48.0,-100.00,North,-999,-999.0,-999.0,79,-99.99,,,-99.99,,2013-09-04 12:01:00,
2013-09-04 12:11:00,54.0,48.0,-100.00,North,-999,-999.0,-999.0,79,-99.99,,,-99.99,,2013-09-04 12:11:00,
2013-09-04 12:42:00,54.0,49.0,-100.00,North,-999,-999.0,-999.0,83,-99.99,,,-99.99,,2013-09-04 12:42:00,
2013-09-04 12:52:00,53.0,48.0,-100.00,North,-999,-999.0,-999.0,83,-99.99,,,-99.99,,2013-09-04 12:52:00,
2013-09-04 13:01:00,53.0,48.0,-100.00,North,-999,-999.0,-999.0,83,-99.99,,,-99.99,,2013-09-04 13:01:00,
2013-09-04 13:11:00,53.0,48.0,-100.00,North,-999,-999.0,-999.0,83,-99.99,,,-99.99,,2013-09-04 13:11:00,
2013-09-04 13:42:00,53.0,48.0,-100.00,North,-999,-999.0,-999.0,82,-99.99,,,-99.99,,2013-09-04 13:42:00,
2013-09-04 14:11:00,53.0,47.0,-100.00,North,-999,-999.0,-999.0,81,-99.99,,,-99.99,,2013-09-04 14:11:00,
2013-09-04 14:42:00,52.0,48.0,-100.00,North,-999,-999.0,-999.0,85,-99.99,,,-99.99,,2013-09-04 14:42:00,
2013-09-04 14:52:00,54.0,49.0,-100.00,North,-999,-999.0,-999.0,83,-99.99,,,-99.99,,2013-09-04 14:52:00,
2013-09-04 15:02:00,54.0,49.0,-100.00,North,-999,-999.0,-999.0,83,-99.99,,,-99.99,,2013-09-04 15:02:00,
2013-09-04 15:12:00,54.0,49.0,-100.00,North,-999,-999.0,-999.0,83,-99.99,,,-99.99,,2013-09-04 15:12:00,
2013-09-04 15:43:00,63.0,53.0,-100.00,North,-999,-999.0,-999.0,69,-99.99,,,-99.99,,2013-09-04 15:43:00,
2013-09-04 15:53:00,75.0,55.0,-100.00,North,-999,-999.0,-999.0,49,-99.99,,,-99.99,,2013-09-04 15:53:00,
2013-09-04 16:03:00,75.0,55.0,-100.00,North,-999,-999.0,-999.0,49,-99.99,,,-99.99,,2013-09-04 16:03:00,
2013-09-04 16:12:00,75.0,55.0,-100.00,North,-999,-999.0,-999.0,49,-99.99,,,-99.99,,2013-09-04 16:12:00,
2013-09-04 16:43:00,82.0,53.0,-100.00,North,-999,-999.0,-999.0,37,-99.99,,,-99.99,,2013-09-04 16:43:00,
2013-09-04 16:53:00,89.0,54.0,-100.00,North,-999,-999.0,-999.0,30,-99.99,,,-99.99,,2013-09-04 16:53:00,
2013-09-04 17:03:00,89.0,54.0,-100.00,North,-999,-999.0,-999.0,30,-99.99,,,-99.99,,2013-09-04 17:03:00,
2013-09-04 17:13:00,89.0,54.0,-100.00,North,-999,-999.0,-999.0,30,-99.99,,,-99.99,,2013-09-04 17:13:00,
2013-09-04 17:42:00,90.0,51.0,-100.00,North,-999,-999.0,-999.0,27,-99.99,,,-99.99,,2013-09-04 17:42:00,
2013-09-04 17:52:00,90.0,51.0,-100.00,North,-999,-999.0,-999.0,27,-99.99,,,-99.99,,2013-09-04 17:52:00,
2013-09-04 18:02:00,90.0,51.0,-100.00,North,-999,-999.0,-999.0,27,-99.99,,,-99.99,,2013-09-04 18:02:00,
2013-09-04 18:12:00,90.0,51.0,-100.00,North,-999,-999.0,-999.0,27,-99.99,,,-99.99,,2013-09-04 18:12:00,
2013-09-04 18:42:00,93.0,53.0,-100.00,North,-999,-999.0,-999.0,26,-99.99,,,-99.99,,2013-09-04 18:42:00,
2013-09-04 18:52:00,92.0,52.0,-100.00,North,-999,-999.0,-999.0,26,-99.99,,,-99.99,,2013-09-04 18:52:00,
2013-09-04 19:02:00,92.0,52.0,-100.00,North,-999,-999.0,-999.0,26,-99.99,,,-99.99,,2013-09-04 19:02:00,
2013-09-04 19:11:00,92.0,52.0,-100.00,North,-999,-999.0,-999.0,26,-99.99,,,-99.99,,2013-09-04 19:11:00,
2013-09-04 19:42:00,93.0,52.0,-100.00,North,-999,-999.0,-999.0,25,-99.99,,,-99.99,,2013-09-04 19:42:00,
2013-09-04 19:52:00,94.0,53.0,-100.00,North,-999,-999.0,-999.0,25,-99.99,,,-99.99,,2013-09-04 19:52:00,
2013-09-04 20:02:00,94.0,53.0,-100.00,North,-999,-999.0,-999.0,25,-99.99,,,-99.99,,2013-09-04 20:02:00,
2013-09-04 20:11:00,94.0,53.0,-100.00,North,-999,-999.0,-999.0,25,-99.99,,,-99.99,,2013-09-04 20:11:00,
2013-09-04 20:43:00,92.0,53.0,-100.00,North,-999,-999.0,-999.0,27,-99.99,,,0.00,,2013-09-04 20:43:00,
2013-09-04 20:53:00,93.0,54.0,-100.00,North,-999,-999.0,-999.0,27,-99.99,,,-99.99,,2013-09-04 20:53:00,
2013-09-04 21:01:00,93.0,54.0,-100.00,North,-999,-999.0,-999.0,27,-99.99,,,-99.99,,2013-09-04 21:01:00,
2013-09-04 21:11:00,93.0,54.0,-100.00,North,-999,-999.0,-999.0,27,-99.99,,,-99.99,,2013-09-04 21:11:00,
2013-09-04 21:44:00,92.0,53.0,-100.00,North,-999,-999.0,-999.0,27,-99.99,,,-99.99,,2013-09-04 21:44:00,
2013-09-04 21:54:00,93.0,54.0,-100.00,North,-999,-999.0,-999.0,27,-99.99,,,-99.99,,2013-09-04 21:54:00,
2013-09-04 22:04:00,93.0,54.0,-100.00,North,-999,-999.0,-999.0,27,-99.99,,,-99.99,,2013-09-04 22:04:00,
2013-09-04 22:14:00,93.0,54.0,-100.00,North,-999,-999.0,-999.0,27,-99.99,,,-99.99,,2013-09-04 22:14:00,
2013-09-04 22:43:00,93.0,54.0,-100.00,North,-999,-999.0,-999.0,27,-99.99,,,-99.99,,2013-09-04 22:43:00,
2013-09-04 22:54:00,93.0,54.0,-100.00,North,-999,-999.0,-999.0,27,-99.99,,,-99.99,,2013-09-04 22:54:00,
2013-09-04 23:03:00,93.0,54.0,-100.00,North,-999,-999.0,-999.0,27,-99.99,,,-99.99,,2013-09-04 23:03:00,
2013-09-04 23:13:00,93.0,54.0,-100.00,North,-999,-999.0,-999.0,27,-99.99,,,-99.99,,2013-09-04 23:13:00,
2013-09-04 23:22:00,93.0,53.0,-100.00,North,-999,-999.0,-999.0,26,-99.99,,,-99.99,,2013-09-04 23:22:00,
2013-09-04 23:34:00,93.0,53.0,-100.00,North,-999,-999.0,-999.0,26,-99.99,,,-99.99,,2013-09-04 23:34:00,
2013-09-04 23:42:00,93.0,53.0,-100.00,North,-999,-999.0,-999.0,26,-99.99,,,-99.99,,2013-09-04 23:42:00,
2013-09-04 23:52:00,92.0,53.0,-100.00,North,-999,-999.0,-999.0,27,-99.99,,,-99.99,,2013-09-04 23:52:00,